Regional Weather Roundup
Issued by NWS Portland, ME

Current Version | Previous Version | Text Only | Print | Product List | Glossary Off
Versions: 1 2 3 4 5 6 7 8 9 10 11 12 13 14 15 16 17 18 19 20 21 22 23 24 25 26 27 28 29 30 31 32 33 34 35 36 37 38 39 40 41 42 43 44 45 46 47 48 49 50
000 ASUS41 KGYX 231405 RWRGYX WEATHER ROUNDUP FOR MAINE AND NEW HAMPSHIRE NATIONAL WEATHER SERVICE GRAY ME 1000 AM EDT SAT SEP 23 2017 MEZ002-005-006-010-012-015-018-020-021-024-026-027-029-231500- MAINE CITY SKY/WX TMP DP RH WIND PRES REMARKS PORTLAND MOSUNNY 71 51 49 VRB5 30.05S SANFORD SUNNY 71 54 54 N7 30.05F BAR HARBOR SUNNY 67 56 67 CALM 30.04S WISCASSET SUNNY 71 54 54 CALM 30.05F ROCKLAND SUNNY 67 54 63 VRB3 30.03F FRYEBURG SUNNY 68 51 54 CALM 30.08S LEWISTONAUBURN SUNNY 67 51 56 CALM 30.06S AUGUSTA SUNNY 67 50 54 NW5 30.06R WATERVILLE SUNNY 66 50 56 CALM 30.02F BANGOR PTSUNNY 66 50 56 SW3 30.04F GREENVILLE N/A 64 53 67 CALM 30.05R MILLINOCKET SUNNY 64 52 64 CALM 30.03S HOULTON SUNNY 66 49 54 VRB6 30.01R PRESQUE ISLE MOSUNNY 68 50 52 S6 30.00 FRENCHVILLE SUNNY 67 50 54 W10 29.98R CARIBOU SUNNY 67 49 52 SW5 29.98S $$ NHZ002-005-008-009-011-012-014-231500- NEW HAMPSHIRE CITY SKY/WX TMP DP RH WIND PRES REMARKS PORTSMOUTH MOSUNNY 72 54 53 N5 30.04R ROCHESTER SUNNY 72 52 49 NW8 30.05S NASHUA SUNNY 72 51 47 N8 30.06S MANCHESTER MOSUNNY 73 47 39 N13 30.05R CONCORD SUNNY 69 53 56 CALM 30.07S LACONIA SUNNY 67 52 58 VRB5 30.08F PLYMOUTH FAIR 63 52 68 W3 30.09S BERLIN SUNNY 58 44 60 CALM 30.11F WHITEFIELD SUNNY 61 47 59 CALM 30.12S JAFFREY SUNNY 71 52 50 CALM 30.10R KEENE SUNNY 74 53 48 NE5 30.09S LEBANON SUNNY 62 51 67 CALM 30.11S MT WASHINGTON PTSUNNY 57 46 67 N20 N/A $$ VTZ005-007-008-231500- VERMONT CITY SKY/WX TMP DP RH WIND PRES REMARKS ST JOHNSBURY N/A 58 50 75 MISG 30.11S MONTPELIER SUNNY 60 55 83 NE3 30.16R BURLINGTON PTSUNNY 66 54 65 VRB3 30.11R $$ MAZ007-012-024-CTZ003-RIZ002-NYZ038-NYZ072-231500- SOUTHERN NEW ENGLAND AND NY CITY SKY/WX TMP DP RH WIND PRES REMARKS BOSTON CLOUDY 66 59 78 N10 30.04R WORCESTER PTSUNNY 67 51 56 N13 30.07R NANTUCKET LGT RAIN 63 63 100 N16 29.94R FOG PROVIDENCE CLOUDY 65 63 93 N15 30.03R HARTFORD MOSUNNY 74 53 48 N10 30.06R ALBANY MOSUNNY 67 55 65 NW6 30.12R NEW YORK CITY MOSUNNY 74 56 53 N16G22 30.05R $$ ANZ081-ANZ082-ANZ150-NHZ014-MEZ023>029-231500- COASTAL MARINE OBSERVATIONS STATION/POSITION TIME TEMP WIND PRES WAVE AIR SEA DIR/SP/G HT/PER (UTC) (F) (DEG/KT/KT) (MB) (FT/S) MOUNT DESERT ROC 1400 55 360/ 8/ 8 1017.1R MATINICUS ROCK 1300 56 30/ 10/ 10 1016.7R ISLE OF SHOALS 1300 63 10/ 14/ 17 1016.7R JEFFREYS LEDGE 1336 61 N/A 7/ 8 CASHES LEDGE BUO 1250 57 58 1016.1 8/ 9 GEORGES BANK BUO 1250 74 75 1010.9 7/ 8 $$ .............KEY.............. WCI - WIND CHILL TC - TEMPERATURE IN CELSIUS VSB - VISIBILITY IN MILES HX - HEAT INDEX FAIR- INDICATES FEW OR NO CLOUDS BELOW 12,000 FT, WITH NO SIGNIFICANT WEATHER AND/OR OBSTRUCTIONS TO VISIBILITY.

USA.gov is the U.S. government's official web portal to all federal, state and local government web resources and services.